Regional Weather Roundup
Issued by NWS

Home | Current Version | Previous Version | Text Only | Print | Product List | Glossary On
Versions: 1 2 3 4 5 6 7 8 9 10 11 12 13 14 15 16 17 18 19 20 21 22 23 24 25 26 27 28 29 30 31 32 33 34 35 36 37 38 39 40 41 42 43 44 45 46 47 48 49 50
000
ASUS43 KLMK 191202
RWRKY
KENTUCKY REGIONAL WEATHER ROUNDUP
NATIONAL WEATHER SERVICE LOUISVILLE KY
800 AM EDT FRI SEP 19 2014

NOTE "FAIR" INDICATES FEW OR NO CLOUDS BELOW 12,000 FEET
WITH NO SIGNIFICANT WEATHER AND/OR OBSTRUCTIONS TO VISIBILITY.

KYZ001>023-026-027-061>063-070>075-191300-
WESTERN AND SOUTH CENTRAL KENTUCKY

CITY           SKY/WX    TMP DP  RH WIND       PRES   REMARKS
PADUCAH        CLEAR     57  53  86 CALM      30.06R
HENDERSON      CLEAR     54  48  82 E3        30.09R
OWENSBORO      CLEAR     57  52  84 NE5       30.10R
HOPKINSVILLE   CLEAR     55  55 100 NE6       30.06R
BOWLING GREEN  CLEAR     54  52  93 CALM      30.09R FOG
GLASGOW        CLEAR     54  54  99 CALM      30.09S FOG
$$

KYZ024-025-028>034-038-045-046-053-191300-
NORTH CENTRAL KENTUCKY

CITY           SKY/WX    TMP DP  RH WIND       PRES   REMARKS
LOUISVILLE/SDF PTCLDY    56  48  74 NE6       30.13R
LOUISVILLE/LOU CLEAR     56  48  74 NE6       30.14R
FORT KNOX      CLEAR     54  49  82 NE6       30.11R
$$

KYZ035>037-039>044-047>052-055>060-089>105-191300-
NORTHEAST KENTUCKY

CITY           SKY/WX    TMP DP  RH WIND       PRES   REMARKS
LEXINGTON      CLEAR     55  47  74 E8        30.14R
COVINGTON      CLEAR     55  49  80 E8        30.17R
FRANKFORT      CLEAR     53  47  79 NE3       30.14R
$$

KYZ054-064>069-076>088-106>120-191300-
SOUTHEAST KENTUCKY

CITY           SKY/WX    TMP DP  RH WIND       PRES   REMARKS
JACKSON        CLEAR     53  49  86 CALM      30.14R
LONDON         CLEAR     55  51  86 N5        30.13R
SOMERSET       NOT AVBL
MIDDLESBORO    FOG       54  54 100 CALM      30.14R VSB<1/4
MONTICELLO     SUNNY     55  54  97 NE5       30.13R FOG
$$



USA.gov is the U.S. government's official web portal to all federal, state and local government web resources and services.